Location: Palomar Mountain Lodge
(33.3110°N, 116.8495°W)
Time: 05:05:42
(UTC-07:00)

Tiangong - Pass Details

Date: 16 February 2026
Orbit: 381 x 391 km, 41.5° (Epoch: 8 March)

Event Time Altitude Azimuth Distance (km) Brightness Sun altitude
Rises 18:47:33 0° 299° (WNW) 2,248 2.7 -16.1°
Reaches altitude 10° 18:50:01 10° 318° (NW) 1,392 1.2 -16.6°
Maximum altitude 18:52:22 19° 7° (N) 972 -0.2 -17.1°
Enters shadow 18:52:35 19° 13° (NNE) 976 -0.3 -17.2°
